,,,PA_Meas_PMT16A,,PR_Meas_QMR101_102,,RH_Meas_QMH101,,SR_Meas_QMS101,,TA_Meas_QMH101,,GenWind,,GenWind,
date,time,status,PA,status,PR,status,RH,status,SR,status,TA,status,DirAvg,status,SpdAvg,
2011-04-09, 00:00:04,VALID,1006.15,VALID,0,INVALID,163.723,VALID,0,VALID,24.1884,VALID,10,VALID,0.458984,
2011-04-09, 00:01:04,VALID,1006.16,VALID,0,INVALID,163.723,VALID,0,VALID,24.1884,VALID,10,VALID,0.305469,
2011-04-09, 00:02:04,VALID,1006.12,VALID,0,INVALID,163.716,VALID,0,VALID,24.1689,VALID,10,VALID,0.256641,
2011-04-09, 00:03:04,VALID,1006.13,VALID,0,INVALID,163.701,VALID,0,VALID,24.2078,VALID,10,VALID,0.324219,
2011-04-09, 00:04:04,VALID,1006.12,VALID,0,INVALID,163.708,VALID,0,VALID,24.1689,VALID,10,VALID,0.443359,
2011-04-09, 00:05:04,VALID,1006.14,VALID,0,INVALID,163.716,VALID,0,VALID,24.1689,VALID,10,VALID,0.279297,
2011-04-09, 00:06:04,VALID,1006.1,VALID,0,INVALID,163.708,VALID,0,VALID,24.1884,VALID,10,VALID,0.349219,
2011-04-09, 00:07:04,VALID,1006.09,VALID,0,INVALID,163.701,VALID,0,VALID,24.1671,VALID,10,VALID,0.113672,
2011-04-09, 00:08:04,VALID,1006.06,VALID,0,INVALID,163.716,VALID,0,VALID,24.1902,VALID,10,VALID,0.328906,
2011-04-09, 00:09:04,VALID,1006.06,VALID,0,INVALID,163.693,VALID,0,VALID,24.1671,VALID,10,VALID,0.277344,
2011-04-09, 00:10:04,VALID,1006,VALID,0,INVALID,163.739,VALID,0,VALID,24.1689,VALID,10,VALID,0.514844,
2011-04-09, 00:11:04,VALID,1005.97,VALID,0,INVALID,163.723,VALID,0,VALID,24.1494,VALID,10,VALID,0.405469,
2011-04-09, 00:12:04,VALID,1005.94,VALID,0,INVALID,163.716,VALID,0,VALID,24.1494,VALID,10,VALID,0.290625,
2011-04-09, 00:13:04,VALID,1005.92,VALID,0,INVALID,163.723,VALID,0,VALID,24.1494,VALID,10,VALID,0.0570313,
2011-04-09, 00:14:04,VALID,1005.92,VALID,0,INVALID,163.685,VALID,0,VALID,24.1494,VALID,10,VALID,0.199609,
2011-04-09, 00:15:04,VALID,1005.89,VALID,0,INVALID,163.685,VALID,0,VALID,24.1689,VALID,10,VALID,0.295703,
2011-04-09, 00:16:04,VALID,1005.85,VALID,0,INVALID,163.739,VALID,0,VALID,24.1689,VALID,10,VALID,0.279687,
2011-04-09, 00:17:04,VALID,1005.81,VALID,0,INVALID,163.723,VALID,0,VALID,24.1494,VALID,10,VALID,0.685547,
2011-04-09, 00:18:04,VALID,1005.78,VALID,0,INVALID,163.708,VALID,0.100563,VALID,24.1689,VALID,10,VALID,0.414453,
2011-04-09, 00:19:04,VALID,1005.74,VALID,0,INVALID,163.708,VALID,0,VALID,24.1689,VALID,10,VALID,0.261719,
2011-04-09, 00:20:04,VALID,1005.74,VALID,0,INVALID,163.708,VALID,0,VALID,24.1707,VALID,10,VALID,0.258984,
2011-04-09, 00:21:04,VALID,1005.73,VALID,0,INVALID,163.708,VALID,0,VALID,24.1494,VALID,10,VALID,0.272266,
2011-04-09, 00:22:04,VALID,1005.7,VALID,0,INVALID,163.723,VALID,0,VALID,24.1902,VALID,10,VALID,0.155859,
2011-04-09, 00:23:04,VALID,1005.67,VALID,0,INVALID,163.716,VALID,0,VALID,24.1707,VALID,10,VALID,0.0113281,
2011-04-09, 00:24:04,VALID,1005.65,VALID,0,INVALID,163.716,VALID,0,VALID,24.1494,VALID,10,VALID,0.143359,
2011-04-09, 00:25:04,VALID,1005.64,VALID,0,INVALID,163.731,VALID,0,VALID,24.1707,VALID,10,VALID,0.316406,
2011-04-09, 00:26:04,VALID,1005.61,VALID,0,INVALID,163.739,VALID,0,VALID,24.1707,VALID,10,VALID,0.0015625,
2011-04-09, 00:27:04,VALID,1005.6,VALID,0,INVALID,163.723,VALID,0,VALID,24.1689,VALID,10,VALID,0.101172,
2011-04-09, 00:28:04,VALID,1005.59,VALID,0,INVALID,163.716,VALID,0,VALID,24.1689,VALID,10,VALID,0.0695312,
2011-04-09, 00:29:04,VALID,1005.53,VALID,0,INVALID,163.708,VALID,0,VALID,24.2097,VALID,10,VALID,0.00195313,
2011-04-09, 00:30:04,VALID,1005.54,VALID,0,INVALID,163.731,VALID,0,VALID,24.1884,VALID,346,VALID,0.470313,
2011-04-09, 00:31:04,VALID,1005.51,VALID,0,INVALID,163.731,VALID,0,VALID,24.2291,VALID,345,VALID,0.327734,
2011-04-09, 00:32:04,VALID,1005.49,VALID,0,INVALID,163.731,VALID,0,VALID,24.2273,VALID,345,VALID,0.354688,
2011-04-09, 00:33:04,VALID,1005.48,VALID,0,INVALID,163.701,VALID,0,VALID,24.2681,VALID,342,VALID,0.449609,
2011-04-09, 00:34:04,VALID,1005.45,VALID,0,INVALID,163.701,VALID,0,VALID,24.2468,VALID,342,VALID,0.358203,
2011-04-09, 00:35:04,VALID,1005.44,VALID,0,INVALID,163.701,VALID,0,VALID,24.2857,VALID,343,VALID,0.644922,
2011-04-09, 00:36:04,VALID,1005.43,VALID,0,INVALID,163.701,VALID,0,VALID,24.3246,VALID,344,VALID,0.528125,
2011-04-09, 00:37:04,VALID,1005.4,VALID,0,INVALID,163.701,VALID,0,VALID,24.3246,VALID,344,VALID,0.403906,
2011-04-09, 00:38:04,VALID,1005.37,VALID,0,INVALID,163.701,VALID,0,VALID,24.3246,VALID,344,VALID,0.463281,
2011-04-09, 00:39:04,VALID,1005.38,VALID,0,INVALID,163.685,VALID,0,VALID,24.3441,VALID,344,VALID,0.208984,
2011-04-09, 00:40:04,VALID,1005.38,VALID,0,INVALID,163.693,VALID,0,VALID,24.3849,VALID,344,VALID,0.205859,
2011-04-09, 00:41:04,VALID,1005.35,VALID,0,INVALID,163.693,VALID,0,VALID,24.383,VALID,327,VALID,0.574609,
2011-04-09, 00:42:04,VALID,1005.33,VALID,0,INVALID,163.708,VALID,0,VALID,24.422,VALID,358,VALID,0.678516,
2011-04-09, 00:43:04,VALID,1005.33,VALID,0,INVALID,163.685,VALID,0,VALID,24.4609,VALID,354,VALID,0.348437,
2011-04-09, 00:44:04,VALID,1005.31,VALID,0,INVALID,163.701,VALID,0,VALID,24.4998,VALID,354,VALID,0.590234,
2011-04-09, 00:45:04,VALID,1005.28,VALID,0,INVALID,163.708,VALID,0,VALID,24.5601,VALID,353,VALID,0.494141,
2011-04-09, 00:46:04,VALID,1005.26,VALID,0,INVALID,163.685,VALID,0,VALID,24.5582,VALID,354,VALID,0.665234,
2011-04-09, 00:47:04,VALID,1005.26,VALID,0,INVALID,163.701,VALID,0.100563,VALID,24.5972,VALID,353,VALID,0.113672,
2011-04-09, 00:48:04,VALID,1005.25,VALID,0,INVALID,163.685,VALID,0,VALID,24.6185,VALID,347,VALID,0.394922,
2011-04-09, 00:49:04,VALID,1005.21,VALID,0,INVALID,163.678,VALID,0,VALID,24.6361,VALID,339,VALID,0.469922,
2011-04-09, 00:50:04,VALID,1005.19,VALID,0,INVALID,163.685,VALID,0,VALID,24.6166,VALID,343,VALID,0.535937,
2011-04-09, 00:51:04,VALID,1005.17,VALID,0,INVALID,163.685,VALID,0,VALID,24.6166,VALID,344,VALID,0.464453,
2011-04-09, 00:52:04,VALID,1005.16,VALID,0,INVALID,163.693,VALID,0,VALID,24.6361,VALID,344,VALID,0.0632813,
2011-04-09, 00:53:04,VALID,1005.14,VALID,0,INVALID,163.662,VALID,0,VALID,24.6769,VALID,344,VALID,0.326172,
2011-04-09, 00:54:04,VALID,1005.13,VALID,0,INVALID,163.662,VALID,0.100563,VALID,24.6964,VALID,343,VALID,0.264453,
2011-04-09, 00:55:04,VALID,1005.11,VALID,0,INVALID,163.693,VALID,0,VALID,24.675,VALID,343,VALID,0.561328,
2011-04-09, 00:56:04,VALID,1005.11,VALID,0,INVALID,163.685,VALID,0,VALID,24.6945,VALID,343,VALID,0.182812,
2011-04-09, 00:57:04,VALID,1005.1,VALID,0,INVALID,163.67,VALID,0,VALID,24.7529,VALID,287,VALID,0.639844,
2011-04-09, 00:58:04,VALID,1005.11,VALID,0,INVALID,163.678,VALID,0,VALID,24.7937,VALID,287,VALID,0.466406,
2011-04-09, 00:59:04,VALID,1005.1,VALID,0,INVALID,163.708,VALID,0,VALID,24.8132,VALID,287,VALID,0.167969,
2011-04-09, 01:00:04,VALID,1005.06,VALID,0,INVALID,163.678,VALID,0,VALID,24.8113,VALID,287,VALID,0,
2011-04-09, 01:01:04,VALID,1005.06,VALID,0,INVALID,163.685,VALID,0,VALID,24.8327,VALID,287,VALID,0.028125,
2011-04-09, 01:02:04,VALID,1005,VALID,0,INVALID,163.678,VALID,0,VALID,24.8327,VALID,287,VALID,0.442969,
2011-04-09, 01:03:04,VALID,1005.02,VALID,0,INVALID,163.67,VALID,0,VALID,24.8327,VALID,287,VALID,0.148047,
2011-04-09, 01:04:04,VALID,1004.98,VALID,0,INVALID,163.662,VALID,0,VALID,24.8132,VALID,287,VALID,0.00351562,
2011-04-09, 01:05:04,VALID,1004.95,VALID,0,INVALID,163.67,VALID,0.100563,VALID,24.8308,VALID,287,VALID,0,
2011-04-09, 01:06:04,VALID,1004.94,VALID,0,INVALID,163.662,VALID,0,VALID,24.7919,VALID,287,VALID,0,
2011-04-09, 01:07:04,VALID,1004.94,VALID,0,INVALID,163.662,VALID,0.100563,VALID,24.79,VALID,287,VALID,0,
2011-04-09, 01:08:04,VALID,1004.92,VALID,0,INVALID,163.662,VALID,0,VALID,24.7919,VALID,287,VALID,0,
2011-04-09, 01:09:04,VALID,1004.89,VALID,0,INVALID,163.67,VALID,0,VALID,24.8113,VALID,287,VALID,0,
2011-04-09, 01:10:04,VALID,1004.91,VALID,0,INVALID,163.678,VALID,0,VALID,24.8113,VALID,287,VALID,0.0757812,
2011-04-09, 01:11:04,VALID,1004.89,VALID,0,INVALID,163.67,VALID,0.100563,VALID,24.8716,VALID,287,VALID,0.510547,
2011-04-09, 01:12:04,VALID,1004.86,VALID,0,INVALID,163.693,VALID,0,VALID,24.8308,VALID,287,VALID,0.219141,
2011-04-09, 01:13:04,VALID,1004.85,VALID,0,INVALID,163.662,VALID,0,VALID,24.8716,VALID,287,VALID,0.222266,
2011-04-09, 01:14:04,VALID,1004.85,VALID,0,INVALID,163.655,VALID,0,VALID,24.8911,VALID,287,VALID,0,
2011-04-09, 01:15:04,VALID,1004.83,VALID,0,INVALID,163.662,VALID,0,VALID,24.8911,VALID,287,VALID,0.00429688,
2011-04-09, 01:16:04,VALID,1004.84,VALID,0,INVALID,163.67,VALID,0,VALID,24.8892,VALID,287,VALID,0.125781,
2011-04-09, 01:17:04,VALID,1004.79,VALID,0,INVALID,163.655,VALID,0,VALID,24.8911,VALID,287,VALID,0,
2011-04-09, 01:18:04,VALID,1004.77,VALID,0,INVALID,163.662,VALID,0,VALID,24.8892,VALID,287,VALID,0,
2011-04-09, 01:19:04,VALID,1004.77,VALID,0,INVALID,163.655,VALID,0,VALID,24.8892,VALID,287,VALID,0.141016,
2011-04-09, 01:20:04,VALID,1004.79,VALID,0,INVALID,163.67,VALID,0,VALID,24.9087,VALID,343,VALID,0.270703,
2011-04-09, 01:21:04,VALID,1004.73,VALID,0,INVALID,163.655,VALID,0,VALID,24.9282,VALID,343,VALID,0,
2011-04-09, 01:22:04,VALID,1004.72,VALID,0,INVALID,163.693,VALID,0,VALID,24.9282,VALID,343,VALID,0.153516,
2011-04-09, 01:23:04,VALID,1004.69,VALID,0,INVALID,163.67,VALID,0,VALID,24.9282,VALID,343,VALID,0.410156,
2011-04-09, 01:24:04,VALID,1004.71,VALID,0,INVALID,163.632,VALID,0,VALID,24.9282,VALID,350,VALID,0.625391,
2011-04-09, 01:25:04,VALID,1004.68,VALID,0,INVALID,163.639,VALID,0,VALID,24.9476,VALID,346,VALID,0.330859,
2011-04-09, 01:26:04,VALID,1004.67,VALID,0,INVALID,163.655,VALID,0.100563,VALID,25.0079,VALID,346,VALID,0.317578,
2011-04-09, 01:27:04,VALID,1004.66,VALID,0,INVALID,163.655,VALID,0,VALID,24.9866,VALID,346,VALID,0.355078,
2011-04-09, 01:28:04,VALID,1004.62,VALID,0,INVALID,163.647,VALID,0,VALID,25.0079,VALID,346,VALID,0.185937,
2011-04-09, 01:29:04,VALID,1004.65,VALID,0,INVALID,163.67,VALID,0,VALID,24.9476,VALID,346,VALID,0.0960938,
2011-04-09, 01:30:04,VALID,1004.67,VALID,0,INVALID,163.632,VALID,0,VALID,24.9476,VALID,346,VALID,0,
2011-04-09, 01:31:04,VALID,1004.64,VALID,0,INVALID,163.662,VALID,0,VALID,24.9495,VALID,346,VALID,0,
2011-04-09, 01:32:04,VALID,1004.64,VALID,0,INVALID,163.655,VALID,0,VALID,24.9495,VALID,346,VALID,0.332812,
2011-04-09, 01:33:04,VALID,1004.65,VALID,0,INVALID,163.67,VALID,0.100563,VALID,24.9476,VALID,349,VALID,0.653125,
2011-04-09, 01:34:04,VALID,1004.62,VALID,0,INVALID,163.647,VALID,0,VALID,24.969,VALID,349,VALID,0.0832031,
2011-04-09, 01:35:04,VALID,1004.61,VALID,0,INVALID,163.662,VALID,0,VALID,24.9671,VALID,349,VALID,0.473828,
2011-04-09, 01:36:04,VALID,1004.64,VALID,0,INVALID,163.632,VALID,0,VALID,24.9866,VALID,324,VALID,0.0820313,
2011-04-09, 01:37:04,VALID,1004.58,VALID,0,INVALID,163.662,VALID,0,VALID,25.006,VALID,324,VALID,0.00234375,
2011-04-09, 01:38:04,VALID,1004.55,VALID,0,INVALID,163.647,VALID,0,VALID,25.0255,VALID,301,VALID,0.566797,
2011-04-09, 01:39:04,VALID,1004.54,VALID,0,INVALID,163.647,VALID,0,VALID,25.0839,VALID,284,VALID,0.230078,
2011-04-09, 01:40:04,VALID,1004.52,VALID,0,INVALID,163.647,VALID,0,VALID,25.1034,VALID,284,VALID,0.118359,
2011-04-09, 01:41:04,VALID,1004.53,VALID,0,INVALID,163.647,VALID,0,VALID,25.1423,VALID,284,VALID,0.416016,
2011-04-09, 01:42:04,VALID,1004.52,VALID,0,INVALID,163.639,VALID,0,VALID,25.1832,VALID,284,VALID,0.264453,
2011-04-09, 01:43:04,VALID,1004.54,VALID,0,INVALID,163.67,VALID,0,VALID,25.1618,VALID,284,VALID,0,
2011-04-09, 01:44:04,VALID,1004.51,VALID,0,INVALID,163.655,VALID,0,VALID,25.1832,VALID,238,VALID,0.857422,
2011-04-09, 01:45:04,VALID,1004.51,VALID,0,INVALID,163.639,VALID,0,VALID,25.2007,VALID,252,VALID,0.462109,
2011-04-09, 01:46:04,VALID,1004.48,VALID,0,INVALID,163.639,VALID,0.100563,VALID,25.2806,VALID,351,VALID,0.594531,
2011-04-09, 01:47:04,VALID,1004.5,VALID,0,INVALID,163.639,VALID,0,VALID,25.3604,VALID,294,VALID,0.278516,
2011-04-09, 01:48:04,VALID,1004.49,VALID,0,INVALID,163.639,VALID,0,VALID,25.3584,VALID,341,VALID,0.661719,
2011-04-09, 01:49:04,VALID,1004.47,VALID,0,INVALID,163.632,VALID,0,VALID,25.376,VALID,353,VALID,0.249219,
2011-04-09, 01:50:04,VALID,1004.47,VALID,0,INVALID,163.655,VALID,0,VALID,25.3779,VALID,351,VALID,0.173047,
2011-04-09, 01:51:04,VALID,1004.44,VALID,0,INVALID,163.617,VALID,0,VALID,25.376,VALID,351,VALID,0.0429688,
2011-04-09, 01:52:04,VALID,1004.45,VALID,0,INVALID,163.624,VALID,0,VALID,25.376,VALID,339,VALID,0.725781,
2011-04-09, 01:53:04,VALID,1004.4,VALID,0,INVALID,163.617,VALID,0,VALID,25.4344,VALID,315,VALID,0.478516,
2011-04-09, 01:54:04,VALID,1004.4,VALID,0,INVALID,163.632,VALID,0,VALID,25.4558,VALID,326,VALID,0.169531,
2011-04-09, 01:55:04,VALID,1004.43,VALID,0,INVALID,163.609,VALID,0,VALID,25.4344,VALID,326,VALID,0.138672,
2011-04-09, 01:56:04,VALID,1004.36,VALID,0,INVALID,163.624,VALID,0,VALID,25.4344,VALID,326,VALID,0.113672,
2011-04-09, 01:57:04,VALID,1004.34,VALID,0,INVALID,163.617,VALID,0,VALID,25.4753,VALID,308,VALID,0.330078,
2011-04-09, 01:58:04,VALID,1004.36,VALID,0,INVALID,163.617,VALID,0,VALID,25.4149,VALID,276,VALID,0.274609,
2011-04-09, 01:59:04,VALID,1004.31,VALID,0,INVALID,163.617,VALID,0,VALID,25.4363,VALID,314,VALID,0.507813,
2011-04-09, 02:00:04,VALID,1004.36,VALID,0,INVALID,163.617,VALID,0,VALID,25.4558,VALID,272,VALID,1.03125,
2011-04-09, 02:01:04,VALID,1004.33,VALID,0,INVALID,163.624,VALID,0,VALID,25.4539,VALID,302,VALID,0.984375,
2011-04-09, 02:02:04,VALID,1004.27,VALID,0,INVALID,163.624,VALID,0,VALID,25.5142,VALID,356,VALID,1.28398,
2011-04-09, 02:03:04,VALID,1004.29,VALID,0,INVALID,163.617,VALID,0,VALID,25.6116,VALID,333,VALID,0.673828,
2011-04-09, 02:04:04,VALID,1004.32,VALID,0,INVALID,163.586,VALID,0,VALID,25.6681,VALID,355,VALID,1.06367,
2011-04-09, 02:05:04,VALID,1004.29,VALID,0,INVALID,163.609,VALID,0,VALID,25.6486,VALID,327,VALID,0.507031,
2011-04-09, 02:06:04,VALID,1004.33,VALID,0,INVALID,163.601,VALID,0,VALID,25.6681,VALID,338,VALID,0.238672,
2011-04-09, 02:07:04,VALID,1004.35,VALID,0,INVALID,163.601,VALID,0,VALID,25.6506,VALID,339,VALID,0.315234,
2011-04-09, 02:08:04,VALID,1004.33,VALID,0,INVALID,163.624,VALID,0,VALID,25.6097,VALID,327,VALID,0.701563,
2011-04-09, 02:09:04,VALID,1004.35,VALID,0,INVALID,163.571,VALID,0,VALID,25.6311,VALID,323,VALID,0.688281,
2011-04-09, 02:10:04,VALID,1004.32,VALID,0,INVALID,163.594,VALID,0,VALID,25.6116,VALID,338,VALID,0.798047,
2011-04-09, 02:11:04,VALID,1004.34,VALID,0,INVALID,163.609,VALID,0,VALID,25.5902,VALID,312,VALID,0.412891,
2011-04-09, 02:12:04,VALID,1004.34,VALID,0,INVALID,163.601,VALID,0,VALID,25.6292,VALID,305,VALID,0.399219,
2011-04-09, 02:13:04,VALID,1004.37,VALID,0,INVALID,163.609,VALID,0,VALID,25.67,VALID,305,VALID,0.2125,
2011-04-09, 02:14:04,VALID,1004.35,VALID,0,INVALID,163.609,VALID,0,VALID,25.6895,VALID,350,VALID,0.358594,
2011-04-09, 02:15:04,VALID,1004.37,VALID,0,INVALID,163.601,VALID,0,VALID,25.709,VALID,225,VALID,0.911719,
2011-04-09, 02:16:04,VALID,1004.37,VALID,0,INVALID,163.617,VALID,0,VALID,25.748,VALID,236,VALID,1.2332,
2011-04-09, 02:17:04,VALID,1004.38,VALID,0,INVALID,163.609,VALID,0,VALID,25.8064,VALID,314,VALID,0.485547,
2011-04-09, 02:18:04,VALID,1004.37,VALID,0,INVALID,163.594,VALID,0,VALID,25.8239,VALID,308,VALID,0.464844,
2011-04-09, 02:19:04,VALID,1004.34,VALID,0,INVALID,163.624,VALID,0,VALID,25.8843,VALID,237,VALID,0.45,
2011-04-09, 02:20:04,VALID,1004.39,VALID,0,INVALID,163.571,VALID,0,VALID,25.9408,VALID,236,VALID,0.689062,
2011-04-09, 02:21:04,VALID,1004.39,VALID,0,INVALID,163.578,VALID,0,VALID,26.0031,VALID,289,VALID,0.588281,
2011-04-09, 02:22:04,VALID,1004.38,VALID,0,INVALID,163.586,VALID,0,VALID,26.0012,VALID,251,VALID,1.07734,
2011-04-09, 02:23:04,VALID,1004.35,VALID,0,INVALID,163.578,VALID,0,VALID,26.0791,VALID,297,VALID,0.799219,
2011-04-09, 02:24:04,VALID,1004.37,VALID,0,INVALID,163.533,VALID,0,VALID,26.1375,VALID,247,VALID,0.590234,
2011-04-09, 02:25:04,VALID,1004.37,VALID,0,INVALID,163.525,VALID,0,VALID,26.1765,VALID,255,VALID,0.550391,
2011-04-09, 02:26:04,VALID,1004.35,VALID,0,INVALID,163.525,VALID,0,VALID,26.1959,VALID,306,VALID,0.495703,
2011-04-09, 02:27:04,VALID,1004.34,VALID,0,INVALID,149.473,VALID,0,VALID,26.2349,VALID,316,VALID,0.792578,
2011-04-09, 02:28:04,VALID,1004.34,VALID,0,INVALID,147.237,VALID,0,VALID,26.2759,VALID,300,VALID,0.805469,
2011-04-09, 02:29:04,VALID,1004.34,VALID,0,INVALID,163.525,VALID,0,VALID,26.2933,VALID,263,VALID,0.750781,
2011-04-09, 02:30:04,VALID,1004.31,VALID,0,INVALID,163.517,VALID,0,VALID,26.3713,VALID,234,VALID,0.597266,
2011-04-09, 02:31:04,VALID,1004.33,VALID,0,INVALID,163.51,VALID,0,VALID,26.3907,VALID,247,VALID,0.692578,
2011-04-09, 02:32:04,VALID,1004.31,VALID,0,INVALID,163.517,VALID,0,VALID,26.4082,VALID,250,VALID,0.813672,
2011-04-09, 02:33:04,VALID,1004.3,VALID,0,INVALID,163.51,VALID,0,VALID,26.4492,VALID,305,VALID,0.714453,
2011-04-09, 02:34:04,VALID,1004.27,VALID,0,INVALID,163.54,VALID,0,VALID,26.4881,VALID,232,VALID,0.713672,
2011-04-09, 02:35:04,VALID,1004.22,VALID,0,INVALID,163.533,VALID,0,VALID,26.4881,VALID,245,VALID,2.41406,
2011-04-09, 02:36:04,VALID,1004.26,VALID,0,INVALID,163.54,VALID,0,VALID,26.4881,VALID,194,VALID,0.637109,
2011-04-09, 02:37:04,VALID,1004.25,VALID,0,INVALID,163.571,VALID,0,VALID,26.4667,VALID,229,VALID,0.369531,
2011-04-09, 02:38:04,VALID,1004.25,VALID,0,INVALID,163.525,VALID,0,VALID,26.4881,VALID,235,VALID,1.2168,
2011-04-09, 02:39:04,VALID,1004.25,VALID,0,INVALID,163.533,VALID,0,VALID,26.5076,VALID,305,VALID,0.731641,
2011-04-09, 02:40:04,VALID,1004.25,VALID,0,INVALID,163.51,VALID,0,VALID,26.5076,VALID,268,VALID,0.63125,
2011-04-09, 02:41:04,VALID,1004.24,VALID,0,INVALID,157.17,VALID,0,VALID,26.5271,VALID,242,VALID,1.38164,
2011-04-09, 02:42:04,VALID,1004.27,VALID,0,INVALID,159.84,VALID,0,VALID,26.5486,VALID,291,VALID,0.750781,
2011-04-09, 02:43:04,VALID,1004.23,VALID,0,INVALID,163.052,VALID,0,VALID,26.5271,VALID,277,VALID,1.21992,
2011-04-09, 02:44:04,VALID,1004.28,VALID,0,INVALID,126.159,VALID,0,VALID,26.5681,VALID,253,VALID,1.99609,
2011-04-09, 02:45:04,VALID,1004.26,VALID,0,INVALID,114.075,VALID,0,VALID,26.5855,VALID,259,VALID,1.50195,
2011-04-09, 02:46:04,VALID,1004.3,VALID,0,VALID,104,VALID,0,VALID,26.5855,VALID,231,VALID,0.970312,
2011-04-09, 02:47:04,VALID,1004.29,VALID,0,VALID,103.348,VALID,0,VALID,26.6245,VALID,225,VALID,1.50273,
2011-04-09, 02:48:04,VALID,1004.3,VALID,0,VALID,102.998,VALID,0,VALID,26.644,VALID,267,VALID,1.02109,
2011-04-09, 02:49:04,VALID,1004.32,VALID,0,VALID,104,VALID,0,VALID,26.683,VALID,244,VALID,0.697266,
2011-04-09, 02:50:04,VALID,1004.31,VALID,0,VALID,102.776,VALID,0,VALID,26.644,VALID,247,VALID,1.23047,
2011-04-09, 02:51:04,VALID,1004.31,VALID,0,VALID,100.312,VALID,0,VALID,26.646,VALID,244,VALID,1.39531,
2011-04-09, 02:52:04,VALID,1004.32,VALID,0,VALID,101.83,VALID,0,VALID,26.6245,VALID,286,VALID,0.926172,
2011-04-09, 02:53:04,VALID,1004.33,VALID,0,VALID,102.631,VALID,0,VALID,26.6245,VALID,270,VALID,0.625781,
2011-04-09, 02:54:04,VALID,1004.32,VALID,0,VALID,100.991,VALID,0,VALID,26.605,VALID,292,VALID,0.988672,
2011-04-09, 02:55:04,VALID,1004.35,VALID,0,VALID,98.8703,VALID,0,VALID,26.5661,VALID,330,VALID,0.369922,
2011-04-09, 02:56:04,VALID,1004.34,VALID,0,VALID,93.6445,VALID,0,VALID,26.5466,VALID,247,VALID,1.24766,
2011-04-09, 02:57:04,VALID,1004.32,VALID,0,VALID,92.5917,VALID,0,VALID,26.5661,VALID,230,VALID,1.91914,
2011-04-09, 02:58:04,VALID,1004.3,VALID,0,VALID,89.5173,VALID,0,VALID,26.5661,VALID,246,VALID,2.06016,
2011-04-09, 02:59:04,VALID,1004.37,VALID,0,VALID,91.9967,VALID,0,VALID,26.6245,VALID,277,VALID,0.844141,
2011-04-09, 03:00:04,VALID,1004.36,VALID,0,VALID,90.921,VALID,0,VALID,26.644,VALID,288,VALID,0.730078,
2011-04-09, 03:01:04,VALID,1004.36,VALID,0,VALID,90.036,VALID,0,VALID,26.644,VALID,295,VALID,0.969141,
2011-04-09, 03:02:04,VALID,1004.35,VALID,0,VALID,88.7697,VALID,0,VALID,26.6225,VALID,219,VALID,0.780078,
2011-04-09, 03:03:04,VALID,1004.3,VALID,0,VALID,87.961,VALID,0,VALID,26.7065,VALID,241,VALID,1.16367,
2011-04-09, 03:04:04,VALID,1004.31,VALID,0,VALID,87.9228,VALID,0,VALID,26.683,VALID,293,VALID,0.812109,
2011-04-09, 03:05:04,VALID,1004.33,VALID,0,VALID,86.9464,VALID,0,VALID,26.683,VALID,247,VALID,1.49688,
2011-04-09, 03:06:04,VALID,1004.31,VALID,0,VALID,86.809,VALID,0,VALID,26.7024,VALID,273,VALID,1.66875,
2011-04-09, 03:07:04,VALID,1004.33,VALID,0,VALID,87.7245,VALID,0,VALID,26.7219,VALID,225,VALID,0.673828,
2011-04-09, 03:08:04,VALID,1004.3,VALID,0,VALID,87.0379,VALID,0,VALID,26.7024,VALID,307,VALID,0.991406,
2011-04-09, 03:09:04,VALID,1004.32,VALID,0,VALID,86.542,VALID,0,VALID,26.683,VALID,209,VALID,1.77813,
2011-04-09, 03:10:04,VALID,1004.32,VALID,0,VALID,85.535,VALID,0,VALID,26.7045,VALID,258,VALID,1.37266,
2011-04-09, 03:11:04,VALID,1004.32,VALID,0,VALID,85.2451,VALID,0,VALID,26.7024,VALID,218,VALID,1.23398,
2011-04-09, 03:12:04,VALID,1004.32,VALID,0,VALID,85.0391,VALID,0,VALID,26.7239,VALID,233,VALID,1.06797,
2011-04-09, 03:13:04,VALID,1004.3,VALID,0,VALID,84.9018,VALID,0,VALID,26.683,VALID,205,VALID,1.02461,
2011-04-09, 03:14:04,VALID,1004.29,VALID,0,VALID,85.3672,VALID,0,VALID,26.7004,VALID,221,VALID,0.5375,
2011-04-09, 03:15:04,VALID,1004.29,VALID,0,VALID,83.4981,VALID,0,VALID,26.7024,VALID,258,VALID,2.52148,
2011-04-09, 03:16:04,VALID,1004.29,VALID,0,VALID,84.3296,VALID,0,VALID,26.7414,VALID,296,VALID,0.964063,
2011-04-09, 03:17:04,VALID,1004.32,VALID,0,VALID,83.4752,VALID,0,VALID,26.7414,VALID,213,VALID,0.8875,
2011-04-09, 03:18:04,VALID,1004.25,VALID,0,VALID,83.1624,VALID,0,VALID,26.7394,VALID,231,VALID,1.12305,
2011-04-09, 03:19:04,VALID,1004.32,VALID,0,VALID,83.643,VALID,0,VALID,26.7179,VALID,295,VALID,0.888672,
2011-04-09, 03:20:04,VALID,1004.31,VALID,0,VALID,84.9018,VALID,0.100563,VALID,26.7199,VALID,358,VALID,0.782812,
2011-04-09, 03:21:04,VALID,1004.26,VALID,0,VALID,85.7105,VALID,0,VALID,26.7004,VALID,239,VALID,2.97227,
2011-04-09, 03:22:04,VALID,1004.28,VALID,0,VALID,86.8319,VALID,0.100563,VALID,26.7589,VALID,202,VALID,0.830078,
2011-04-09, 03:23:04,VALID,1004.24,VALID,0,VALID,87.6101,VALID,0,VALID,26.7394,VALID,228,VALID,1.38945,
2011-04-09, 03:24:04,VALID,1004.3,VALID,0,VALID,89.6546,VALID,0,VALID,26.7414,VALID,290,VALID,1.99961,
2011-04-09, 03:25:04,VALID,1004.31,VALID,0,VALID,91.4245,VALID,0,VALID,26.7199,VALID,257,VALID,1.61523,
2011-04-09, 03:26:04,VALID,1004.37,VALID,0,VALID,93.1486,VALID,0,VALID,26.7004,VALID,239,VALID,1.38203,
2011-04-09, 03:27:04,VALID,1004.34,VALID,0,VALID,94.3387,VALID,0,VALID,26.7004,VALID,250,VALID,2.02461,
2011-04-09, 03:28:04,VALID,1004.31,VALID,0,VALID,94.6134,VALID,0.100563,VALID,26.7414,VALID,250,VALID,1.54219,
2011-04-09, 03:29:04,VALID,1004.32,VALID,0,VALID,95.7196,VALID,0,VALID,26.7219,VALID,256,VALID,2.19062,
2011-04-09, 03:30:04,VALID,1004.31,VALID,0,VALID,97.0928,VALID,0,VALID,26.7004,VALID,255,VALID,1.27578,
2011-04-09, 03:31:04,VALID,1004.32,VALID,0,VALID,98.9466,VALID,0,VALID,26.7004,VALID,226,VALID,0.812891,
2011-04-09, 03:32:04,VALID,1004.32,VALID,0,VALID,101.579,VALID,0,VALID,26.7024,VALID,241,VALID,2.7625,
2011-04-09, 03:33:04,VALID,1004.35,VALID,0,VALID,104,VALID,0,VALID,26.7024,VALID,232,VALID,1.075,
2011-04-09, 03:34:04,VALID,1004.33,VALID,0,INVALID,134.795,VALID,0.100563,VALID,26.7024,VALID,239,VALID,2.51211,
2011-04-09, 03:35:04,VALID,1004.35,VALID,0,INVALID,149.572,VALID,0.100563,VALID,26.683,VALID,248,VALID,1.42617,
2011-04-09, 03:36:04,VALID,1004.35,VALID,0,INVALID,129.21,VALID,0,VALID,26.644,VALID,244,VALID,1.75078,
2011-04-09, 03:37:04,VALID,1004.35,VALID,0,INVALID,123.092,VALID,0,VALID,26.6245,VALID,213,VALID,0.904297,
2011-04-09, 03:38:04,VALID,1004.35,VALID,0,INVALID,152.929,VALID,0,VALID,26.6245,VALID,240,VALID,1.94414,
2011-04-09, 03:39:04,VALID,1004.4,VALID,0,INVALID,157.529,VALID,0,VALID,26.605,VALID,249,VALID,2.34297,
2011-04-09, 03:40:04,VALID,1004.35,VALID,0,INVALID,162.274,VALID,0,VALID,26.605,VALID,228,VALID,1.59258,
2011-04-09, 03:41:04,VALID,1004.25,VALID,0,INVALID,139.425,VALID,0,VALID,26.5446,VALID,244,VALID,2.2332,